| time (UTC) | temp C | wind direction | speed KPH | gust KPH | rain 1hr cm | rain 24hr cm | rain mn cm | humidity % | barometer mb |
| 20260510104558 | 5 | 300 | 16.1 | 22.5 | 0.00 | 0.10 | 0.10 | 78 | 1004.3 |
| 20260510103107 | 5 | 311 | 16.1 | 24.1 | 0.00 | 0.10 | 0.10 | 79 | 1003.9 |
| 20260510101605 | 4 | 311 | 14.5 | 22.5 | 0.00 | 0.10 | 0.10 | 80 | 1003.6 |
| 20260510100052 | 4 | 313 | 12.9 | 20.9 | 0.00 | 0.10 | 0.10 | 79 | 1003.4 |
| 20260510094549 | 5 | 326 | 14.5 | 25.7 | 0.00 | 0.10 | 0.10 | 78 | 1003.3 |
| 20260510093028 | 5 | 313 | 11.3 | 29.0 | 0.00 | 0.10 | 0.10 | 77 | 1003.0 |
| 20260510091525 | 5 | 297 | 12.9 | 20.9 | 0.00 | 0.10 | 0.10 | 75 | 1002.7 |
| 20260510090006 | 5 | 323 | 11.3 | 19.3 | 0.00 | 0.10 | 0.10 | 75 | 1002.6 |
| 20260510084503 | 6 | 309 | 14.5 | 24.1 | 0.00 | 0.10 | 0.10 | 73 | 1002.4 |
| 20260510083102 | 6 | 316 | 16.1 | 35.4 | 0.00 | 0.10 | 0.10 | 72 | 1002.2 |
| 20260510081555 | 6 | 302 | 17.7 | 35.4 | 0.00 | 0.10 | 0.10 | 70 | 1002.2 |
| 20260510080044 | 7 | 313 | 24.1 | 43.5 | 0.00 | 0.10 | 0.10 | 68 | 1002.1 |
| 20260510074540 | 7 | 338 | 27.4 | 45.1 | 0.00 | 0.10 | 0.10 | 64 | 1001.9 |
| 20260510073036 | 8 | 327 | 19.3 | 32.2 | 0.00 | 0.10 | 0.10 | 65 | 1001.7 |
| 20260510071533 | 8 | 329 | 17.7 | 24.1 | 0.00 | 0.10 | 0.10 | 63 | 1001.4 |
| 20260510070035 | 8 | 315 | 12.9 | 19.3 | 0.00 | 0.10 | 0.10 | 65 | 1001.5 |
| 20260510064529 | 8 | 282 | 11.3 | 19.3 | 0.00 | 0.10 | 0.10 | 67 | 1001.2 |
| 20260510063028 | 8 | 321 | 8.0 | 20.9 | 0.00 | 0.10 | 0.10 | 69 | 1000.9 |
| 20260510061516 | 8 | 275 | 12.9 | 24.1 | 0.00 | 0.10 | 0.10 | 69 | 1001.1 |
| 20260510060007 | 8 | 309 | 17.7 | 24.1 | 0.00 | 0.10 | 0.10 | 71 | 1000.9 |
| 20260510054559 | 8 | 313 | 14.5 | 22.5 | 0.00 | 0.10 | 0.10 | 72 | 1000.8 |
| 20260510053049 | 8 | 312 | 14.5 | 25.7 | 0.00 | 0.10 | 0.10 | 71 | 1000.7 |
| 20260510051534 | 8 | 298 | 11.3 | 22.5 | 0.00 | 0.10 | 0.10 | 71 | 1000.6 |
| 20260510050028 | 8 | 331 | 12.9 | 24.1 | 0.00 | 0.10 | 0.10 | 74 | 1000.3 |
| 20260510044509 | 8 | 319 | 14.5 | 19.3 | 0.00 | 0.10 | 0.10 | 76 | 1000.0 |
| 20260510043014 | 9 | 309 | 12.9 | 20.9 | 0.00 | 0.10 | 0.10 | 78 | 999.8 |
| 20260510041602 | 10 | 336 | 12.9 | 19.3 | 0.00 | 0.10 | 0.10 | 80 | 999.7 |
| 20260510040045 | 10 | 296 | 12.9 | 22.5 | 0.00 | 0.10 | 0.10 | 82 | 999.8 |
| 20260510034526 | 10 | 304 | 12.9 | 24.1 | 0.00 | 0.10 | 0.10 | 88 | 999.6 |
| 20260510033023 | 9 | 319 | 8.0 | 12.9 | 0.00 | 0.10 | 0.10 | 93 | 999.6 |
| 20260510031505 | 9 | 324 | 1.6 | 11.3 | 0.00 | 0.10 | 0.10 | 93 | 999.2 |
| 20260510030009 | 8 | 323 | 6.4 | 9.7 | 0.00 | 0.10 | 0.10 | 94 | 999.1 |
| 20260510024608 | 8 | 309 | 3.2 | 14.5 | 0.00 | 0.10 | 0.10 | 94 | 998.7 |
| 20260510023050 | 8 | 304 | 1.6 | 6.4 | 0.00 | 0.10 | 0.10 | 94 | 998.7 |
| 20260510021547 | 8 | 287 | 0.0 | 8.0 | 0.00 | 0.10 | 0.10 | 93 | 998.7 |
| 20260510020044 | 8 | 234 | 3.2 | 11.3 | 0.00 | 0.10 | 0.10 | 93 | 998.4 |
| 20260510014541 | 9 | 229 | 3.2 | 11.3 | 0.00 | 0.10 | 0.10 | 92 | 998.3 |
| 20260510013049 | 9 | 301 | 4.8 | 12.9 | 0.00 | 0.10 | 0.10 | 92 | 998.3 |
| 20260510011538 | 9 | 292 | 1.6 | 17.7 | 0.00 | 0.10 | 0.10 | 93 | 998.0 |
| 20260510010035 | 10 | 252 | 6.4 | 16.1 | 0.00 | 0.10 | 0.10 | 92 | 997.9 |
| 20260510004516 | 10 | 223 | 8.0 | 24.1 | 0.00 | 0.10 | 0.10 | 92 | 997.8 |
| 20260510003012 | 10 | 270 | 3.2 | 19.3 | 0.00 | 0.10 | 0.10 | 92 | 997.5 |
| 20260510001552 | 10 | 233 | 1.6 | 17.7 | 0.03 | 0.10 | 0.10 | 91 | 996.9 |
| 20260510000049 | 11 | 213 | 1.6 | 14.5 | 0.10 | 0.10 | 0.10 | 90 | 996.6 |
| 20260509234533 | 11 | 203 | 8.0 | 16.1 | 0.10 | 0.10 | 0.10 | 89 | 996.5 |
| 20260509233026 | 11 | 282 | 4.8 | 12.9 | 0.10 | 0.10 | 0.10 | 88 | 996.9 |
| 20260509231504 | 12 | 313 | 4.8 | 9.7 | 0.03 | 0.03 | 0.03 | 82 | 997.1 |
| 20260509230004 | 12 | 219 | 0.0 | 8.0 | 0.00 | 0.00 | 0.00 | 78 | 996.2 |
| 20260509224545 | 12 | 191 | 3.2 | 11.3 | 0.00 | 0.00 | 0.00 | 78 | 996.5 |
| 20260509223046 | 12 | 171 | 4.8 | 11.3 | 0.00 | 0.00 | 0.00 | 78 | 996.8 |
| 20260509221527 | 12 | 182 | 4.8 | 12.9 | 0.00 | 0.00 | 0.00 | 78 | 997.1 |
| 20260509220021 | 12 | 150 | 4.8 | 12.9 | 0.00 | 0.00 | 0.00 | 77 | 997.2 |
| 20260509214502 | 12 | 133 | 3.2 | 12.9 | 0.00 | 0.00 | 0.00 | 77 | 997.2 |
| 20260509213002 | 12 | 200 | 1.6 | 11.3 | 0.00 | 0.00 | 0.00 | 76 | 997.5 |
| 20260509211548 | 12 | 167 | 4.8 | 12.9 | 0.00 | 0.00 | 0.00 | 76 | 997.5 |
| 20260509210051 | 12 | 155 | 8.0 | 20.9 | 0.00 | 0.00 | 0.00 | 75 | 997.4 |
| 20260509204521 | 13 | 222 | 9.7 | 25.7 | 0.00 | 0.00 | 0.00 | 73 | 997.4 |
| 20260509203019 | 13 | 157 | 9.7 | 19.3 | 0.00 | 0.00 | 0.00 | 73 | 997.4 |
| 20260509201558 | 13 | 176 | 11.3 | 25.7 | 0.00 | 0.00 | 0.00 | 71 | 997.5 |
| 20260509200056 | 15 | 164 | 14.5 | 24.1 | 0.00 | 0.00 | 0.00 | 68 | 997.4 |
| 20260509194536 | 15 | 213 | 9.7 | 20.9 | 0.00 | 0.00 | 0.00 | 69 | 997.7 |
| 20260509193034 | 15 | 189 | 11.3 | 25.7 | 0.00 | 0.00 | 0.00 | 68 | 998.0 |
| 20260509191518 | 15 | 192 | 16.1 | 30.6 | 0.00 | 0.00 | 0.00 | 67 | 998.1 |
| 20260509190017 | 15 | 163 | 12.9 | 25.7 | 0.00 | 0.00 | 0.00 | 68 | 998.3 |
| 20260509184556 | 15 | 202 | 9.7 | 19.3 | 0.00 | 0.00 | 0.00 | 69 | 998.4 |
| 20260509183055 | 16 | 205 | 9.7 | 19.3 | 0.00 | 0.00 | 0.00 | 64 | 998.6 |
| 20260509181535 | 16 | 212 | 12.9 | 22.5 | 0.00 | 0.00 | 0.00 | 65 | 998.6 |
| 20260509180032 | 16 | 200 | 8.0 | 20.9 | 0.00 | 0.00 | 0.00 | 68 | 998.8 |
| 20260509174511 | 15 | 227 | 14.5 | 29.0 | 0.00 | 0.00 | 0.00 | 69 | 999.0 |
| 20260509173028 | 14 | 180 | 12.9 | 25.7 | 0.00 | 0.00 | 0.00 | 72 | 999.3 |
| 20260509171649 | 15 | 130 | 11.3 | 33.8 | 0.00 | 0.00 | 0.00 | 68 | 999.4 |
| 20260509170054 | 15 | 153 | 12.9 | 24.1 | 0.00 | 0.00 | 0.00 | 69 | 999.4 |
| 20260509164524 | 15 | 199 | 16.1 | 25.7 | 0.00 | 0.00 | 0.00 | 67 | 999.7 |
| 20260509163025 | 15 | 217 | 11.3 | 29.0 | 0.00 | 0.00 | 0.00 | 67 | 999.7 |
| 20260509161507 | 15 | 165 | 11.3 | 25.7 | 0.00 | 0.00 | 0.00 | 66 | 999.7 |
| 20260509160004 | 15 | 124 | 16.1 | 24.1 | 0.00 | 0.00 | 0.00 | 66 | 999.9 |
| 20260509154543 | 15 | 209 | 11.3 | 29.0 | 0.00 | 0.00 | 0.00 | 66 | 1000.2 |
| 20260509153042 | 14 | 234 | 14.5 | 24.1 | 0.00 | 0.00 | 0.00 | 66 | 1000.5 |
| 20260509151523 | 14 | 185 | 11.3 | 20.9 | 0.00 | 0.00 | 0.00 | 67 | 1000.6 |
| 20260509150022 | 14 | 151 | 11.3 | 24.1 | 0.00 | 0.00 | 0.00 | 69 | 1000.7 |
| 20260509144502 | 14 | 210 | 11.3 | 22.5 | 0.00 | 0.00 | 0.00 | 66 | 1000.6 |
| 20260509143000 | 13 | 195 | 11.3 | 25.7 | 0.00 | 0.00 | 0.00 | 69 | 1001.1 |
| 20260509141548 | 14 | 194 | 14.5 | 24.1 | 0.00 | 0.00 | 0.00 | 65 | 1000.9 |
| 20260509140040 | 13 | 175 | 12.9 | 19.3 | 0.00 | 0.00 | 0.00 | 68 | 1001.1 |
| 20260509134521 | 13 | 171 | 9.7 | 17.7 | 0.00 | 0.00 | 0.00 | 71 | 1001.3 |
| 20260509133018 | 12 | 217 | 6.4 | 17.7 | 0.00 | 0.00 | 0.00 | 72 | 1001.2 |
| 20260509131605 | 12 | 276 | 8.0 | 14.5 | 0.00 | 0.00 | 0.00 | 69 | 1001.3 |
| 20260509130127 | 12 | 238 | 6.4 | 14.5 | 0.00 | 0.00 | 0.00 | 67 | 1001.3 |
| 20260509124533 | 12 | 116 | 1.6 | 6.4 | 0.00 | 0.00 | 0.00 | 62 | 1001.3 |
| 20260509123037 | 11 | 153 | 1.6 | 6.4 | 0.00 | 0.00 | 0.00 | 65 | 1001.4 |
| 20260509121506 | 10 | 189 | 0.0 | 3.2 | 0.00 | 0.00 | 0.00 | 68 | 1001.6 |
| 20260509120012 | 8 | 186 | 1.6 | 8.0 | 0.00 | 0.00 | 0.00 | 66 | 1001.6 |
| 20260509114628 | 8 | 219 | 6.4 | 14.5 | 0.00 | 0.00 | 0.00 | 62 | 1001.6 |
| 20260509113052 | 7 | 210 | 8.0 | 14.5 | 0.00 | 0.00 | 0.00 | 62 | 1001.9 |
| 20260509111547 | 7 | 200 | 9.7 | 14.5 | 0.00 | 0.00 | 0.00 | 60 | 1002.0 |
| 20260509110029 | 7 | 225 | 9.7 | 16.1 | 0.00 | 0.00 | 0.00 | 59 | 1002.0 |